Location: Eaton Estates
(41.3089°N, 82.0057°W)
Time: 11:32:29
(UTC+00:00)

CAS-4A - Visible Passes

Search period start: 27 March 2023 00:00
Search period end: 06 April 2023 00:00
Orbit: 510 x 527 km, 43.0° (Epoch: 27 March)

Date Brightness Start Highest point End Pass type
(mag) Time Alt. Az. Time Alt. Az. Time Alt. Az.
27 Mar ? 10:07:37 15° SSW 10:10:21 34° SSE 10:14:00 10° E visible
28 Mar ? 09:52:12 24° SSW 09:54:02 38° SSE 09:57:47 10° E visible
29 Mar ? 09:36:42 35° SSW 09:37:42 43° SSE 09:41:31 10° E visible
30 Mar ? 09:21:06 48° SSE 09:21:20 48° SSE 09:25:13 10° E visible
31 Mar ? 09:05:26 51° SE 09:05:26 51° SE 09:08:54 10° E visible
31 Mar ? 10:40:42 10° W 10:44:42 70° N 10:48:43 10° E visible
01 Apr ? 08:49:42 41° E 08:49:42 41° E 08:52:31 10° ENE visible
01 Apr ? 10:24:39 12° W 10:28:19 68° N 10:32:21 10° E visible
02 Apr ? 08:33:56 31° E 08:33:56 31° E 08:36:08 10° ENE visible
02 Apr ? 10:08:53 16° W 10:11:57 67° N 10:15:57 10° E visible
03 Apr ? 08:18:07 23° E 08:18:07 23° E 08:19:42 10° ENE visible
03 Apr ? 09:53:04 22° W 09:55:32 67° N 09:59:31 10° E visible
04 Apr ? 08:02:18 17° ENE 08:02:18 17° ENE 08:03:15 10° ENE visible
04 Apr ? 09:37:14 30° WNW 09:39:05 67° N 09:43:05 10° E visible
05 Apr ? 07:46:28 12° ENE 07:46:28 12° ENE 07:46:46 10° ENE visible
05 Apr ? 09:21:25 41° WNW 09:22:37 67° N 09:26:37 10° E visible
